User: anonymous   Login
Location: Unspecified
(0.0000°N, 0.0000°E)
Time: 08:51:51
(UTC+02:00)
Language:

Cosmos 1892 Rocket - Orbit

View from above orbital plane
View from above orbital plane
View from above satellite
View from above satellite

Ground track
Ground track

The orbit data is extracted from the following two-line orbital elements,

1 18422U 87088B   16240.55457634  .00000091  00000-0  83295-5 0  9992
2 18422  82.5096  92.0166 0018830 330.4291  57.7488 14.82877922558305
Epoch (UTC): 27 August 2016 13:18:35
Eccentricity: 0.0018830
inclination: 82.5096°
perigee height: 607 km
apogee height: 633 km
right ascension of ascending node: 92.0166°
argument of perigee: 330.4291°
revolutions per day: 14.82877922
mean anomaly at epoch: 57.7488°
orbit number at epoch: 55830

The dashed part of the orbit path shows where the satellite is in the earth's shadow,  

DLR